Regional Weather Roundup
Issued by NWS

Home | Current Version | Previous Version | Text Only | Print | Product List | Glossary Off
Versions: 1 2 3 4 5 6 7 8 9 10 11 12 13 14 15 16 17 18 19 20 21 22 23 24 25 26 27 28 29 30 31 32 33 34 35 36 37 38 39 40 41 42 43 44 45 46 47 48 49 50

000
ASUS43 KLSX 280359
RWRMO

WEATHER SUMMARY FOR MISSOURI
NATIONAL WEATHER SERVICE SPRINGFIELD MO
1000 PM CST THU NOV 27 2014

NOTE: "FAIR" INDICATES FEW OR NO CLOUDS BELOW 12,000 FEET WITH NO
       SIGNIFICANT WEATHER AND/OR OBSTRUCTIONS TO VISIBILITY.
       CURRENT SKY AND/OR WEATHER CONDITIONS ARE NOT AVAILABLE FOR
       CHILLICOTHE AND FARMINGTON.

MOZ001>031-035>038-043-044-053-054-280500-
...NORTHERN AND WESTERN MISSOURI...

CITY           SKY/WX    TMP DP  RH WIND       PRES   REMARKS
KANSAS CTY INT CLEAR     28  22  78 SE10      30.29F WCI  19
KANSAS C DTWN  CLEAR     33  23  66 E8        30.31F WCI  26
LEE`S SUMMIT   CLEAR     31  22  69 SE7       30.31F WCI  24
ST JOSEPH      CLEAR     27  22  81 SE12      30.28F WCI  17
CHILLICOTHE      N/A     29  20  69 SE7       30.35F WCI  22
KIRKSVILLE     MOCLDY    20  14  77 SE9       30.36F WCI   9

$$
MOZ066>068-077>081-088>096-101>105-280500-
...SOUTHWEST MISSOURI...

CITY           SKY/WX    TMP DP  RH WIND       PRES   REMARKS
SPRINGFIELD    CLEAR     34  22  61 S10       30.31F WCI  26
JOPLIN         CLEAR     34  20  56 SE5       30.34S WCI  30

$$
MOZ032>034-039>042-045>050-055>058-069>072-280500-
...CENTRAL MISSOURI...

CITY           SKY/WX    TMP DP  RH WIND       PRES   REMARKS
COLUMBIA       CLOUDY    31  24  75 SE7       30.36F WCI  24
JEFFERSON CITY CLOUDY    31  26  82 SE6       30.39F WCI  25
ROLLA          CLOUDY    29  23  78 E8        30.35F WCI  21
SEDALIA        PTCLDY    30  23  75 SE7       30.36S WCI  23
OSAGE BEACH    MOCLDY    30  21  69 SE5       30.37S WCI  25

$$
MOZ051-052-059>065-280500-
...EAST CENTRAL MISSOURI...

CITY           SKY/WX    TMP DP  RH WIND       PRES   REMARKS
ST LOUIS INTL  MOCLDY    27  19  72 E6        30.44F WCI  20
SPIRIT OF STL  CLOUDY    28  20  71 CALM      30.43F
ST CHARLES     PTCLDY    25  19  78 E5        30.45S WCI  19

$$
MOZ072>076-082>087-097>100-106>115-280500-
...SOUTH CENTRAL AND SOUTHEAST MISSOURI...

CITY           SKY/WX    TMP DP  RH WIND       PRES   REMARKS
CAPE GIRARDEAU CLEAR     29  26  89 SE3       30.47F
FARMINGTON     CLOUDY    28  25  86 CALM      30.43S
POPLAR BLUFF   CLEAR     28  25  88 CALM      30.45S
WEST PLAINS    PTCLDY    33  20  58 SE5       30.39F WCI  29

$$


USA.gov is the U.S. government's official web portal to all federal, state and local government web resources and services.